Location: *
(44.3925°N, 5.4708°E)
Time: 21:04:46
(UTC+00:00)

SPOT 3 Rocket - Pass Details

Date: 18 September 2019
Orbit: 779 x 794 km, 98.8° (Epoch: 12 October)

Event Time Altitude Azimuth Distance (km) Brightness Sun altitude
Exits shadow 18:31:11 - 133° (SE) 2,599 5.7 -9.2°
Reaches altitude 10° 18:31:56 10° 130° (SE) 2,329 5.5 -9.3°
Maximum altitude 18:36:31 34° 66° (ENE) 1,260 4.2 -10.1°
Drops below altitude 10° 18:41:08 10° 3° (N) 2,343 6.2 -10.9°
Sets 18:43:38 0° 354° (N) 3,277 7.0 -11.4°
